Tracking 19279 objects as of 14-Nov-2018
HD Live streaming from Space Station
objects crossing your sky now

JCSAT 13

Track JCSAT 13 now!
JCSAT 13 is classified as:


NORAD ID: 38331
Int'l Code: 2012-023A
Perigee: 35,784.2 km
Apogee: 35,803.2 km
Inclination: 0.0 °
Period: 1,436.1 minutes
Semi major axis: 42164 km
RCS: 10 m2 (large)
Launch date: May 15, 2012
Source: Japan (JPN)
Launch site: FRENCH GUIANA (FRGUI)

JCSAT-13, owned by Japan's SkyPerfect JSat Corp., carries 44 Ku-band transponders and two steerable beams for television and telecommunications services. Weighing 4,528 kilograms (9,983 pounds) at launch, it will operate from 124 degrees east longitude.
aabbcc
Your satellite tracking list
Your tracking list is empty




NASA's NSSDC Master Catalog

Two Line Element Set (TLE):
1 38331U 12023A   18317.50949906 -.00000357 +00000-0 +00000-0 0  9994
2 38331 000.0138 266.1261 0002258 294.1988 159.6936 01.00271914023722
Source of the keplerian elements: AFSPC